Location: Joplin, MO
(37.0842°N, 94.5133°W)
Time: 17:06:29
(UTC+02:00)

Transit 2A - Pass Details

Date: 08 April 2023
Orbit: 591 x 964 km, 66.7° (Epoch: 03 June)

Event Time Altitude Azimuth Distance (km) Brightness Sun altitude
Exits shadow 10:37:30 28° 349° (N) 1,605 7.8 -35.3°
Drops below altitude 10° 10:40:48 10° 13° (NNE) 2,597 9.3 -34.9°
Sets 10:43:39 0° 22° (NNE) 3,585 10.3 -34.5°
